TimeICT,TemperatureF,Dew PointF,Humidity,Sea Level PressureIn,VisibilityMPH,Wind Direction,Wind SpeedMPH,Gust SpeedMPH,PrecipitationIn,Events,Conditions,WindDirDegrees,DateUTC
12:00 AM,78.8,64.4,61,29.92,5.6,NW,3.5,-,N/A,,Unknown,320,2014-01-26 17:00:00
12:30 AM,77.0,62.6,61,29.89,5.6,WNW,3.5,-,N/A,,Unknown,300,2014-01-26 17:30:00
1:00 AM,77.0,62.6,61,29.89,5.6,West,3.5,-,N/A,,Unknown,280,2014-01-26 18:00:00
6:00 AM,69.8,62.6,78,29.89,5.0,South,3.5,-,N/A,,Unknown,190,2014-01-26 23:00:00
6:30 AM,69.8,62.6,78,29.92,3.1,Variable,1.2,-,N/A,,Mist,0,2014-01-26 23:30:00
7:00 AM,71.6,64.4,78,29.92,5.0,SSW,2.3,-,N/A,,Unknown,210,2014-01-27 00:00:00
7:30 AM,71.6,64.4,78,29.92,5.0,SSW,2.3,-,N/A,,Unknown,210,2014-01-27 00:30:00
8:00 AM,73.4,64.4,73,29.95,5.6,SSW,5.8,-,N/A,,Unknown,210,2014-01-27 01:00:00
8:30 AM,75.2,64.4,69,29.95,5.6,SSE,4.6,-,N/A,,Unknown,150,2014-01-27 01:30:00
9:00 AM,77.0,64.4,65,29.98,6.2,SSE,4.6,-,N/A,,Partly Cloudy,160,2014-01-27 02:00:00
9:30 AM,78.8,62.6,57,29.98,6.2,SSE,6.9,-,N/A,,Partly Cloudy,150,2014-01-27 02:30:00
10:00 AM,80.6,64.4,58,29.98,6.2,East,5.8,-,N/A,,Partly Cloudy,80,2014-01-27 03:00:00
10:30 AM,80.6,64.4,58,29.95,6.2,East,6.9,-,N/A,,Partly Cloudy,90,2014-01-27 03:30:00
11:00 AM,82.4,62.6,51,29.95,6.2,SSE,6.9,-,N/A,,Partly Cloudy,150,2014-01-27 04:00:00
11:30 AM,82.4,64.4,54,29.95,6.2,ENE,3.5,-,N/A,,Partly Cloudy,70,2014-01-27 04:30:00
12:00 PM,82.4,62.6,51,29.92,6.2,East,8.1,-,N/A,,Partly Cloudy,90,2014-01-27 05:00:00
12:30 PM,84.2,62.6,48,29.92,6.2,East,8.1,-,N/A,,Partly Cloudy,90,2014-01-27 05:30:00
1:00 PM,82.4,60.8,48,29.89,6.2,East,2.3,-,N/A,,Partly Cloudy,90,2014-01-27 06:00:00
1:30 PM,84.2,60.8,45,29.89,6.2,ESE,9.2,-,N/A,,Partly Cloudy,120,2014-01-27 06:30:00
2:00 PM,86.0,59.0,40,29.86,6.2,SE,5.8,-,N/A,,Partly Cloudy,130,2014-01-27 07:00:00
2:30 PM,86.0,59.0,40,29.83,6.2,East,8.1,-,N/A,,Partly Cloudy,100,2014-01-27 07:30:00
3:00 PM,86.0,59.0,40,29.83,6.2,East,9.2,-,N/A,,Partly Cloudy,100,2014-01-27 08:00:00
3:30 PM,86.0,59.0,40,29.83,6.2,SW,4.6,-,N/A,,Partly Cloudy,230,2014-01-27 08:30:00
4:00 PM,86.0,59.0,40,29.83,6.2,NE,5.8,-,N/A,,Partly Cloudy,50,2014-01-27 09:00:00
4:30 PM,86.0,59.0,40,29.83,6.2,NNE,3.5,-,N/A,,Partly Cloudy,20,2014-01-27 09:30:00
5:00 PM,84.2,59.0,42,29.83,6.2,North,5.8,-,N/A,,Partly Cloudy,360,2014-01-27 10:00:00
5:30 PM,84.2,59.0,42,29.83,6.2,North,4.6,-,N/A,,Scattered Clouds,360,2014-01-27 10:30:00
6:00 PM,84.2,59.0,42,29.83,6.2,NNE,3.5,-,N/A,,Scattered Clouds,30,2014-01-27 11:00:00
6:30 PM,82.4,62.6,51,29.86,5.6,NNW,3.5,-,N/A,,Scattered Clouds,330,2014-01-27 11:30:00
7:00 PM,82.4,60.8,48,29.86,5.6,NNW,2.3,-,N/A,,Partly Cloudy,330,2014-01-27 12:00:00
7:30 PM,80.6,62.6,54,29.86,5.6,SSW,3.5,-,N/A,,Partly Cloudy,210,2014-01-27 12:30:00
8:00 PM,80.6,64.4,58,29.89,5.6,SSW,4.6,-,N/A,,Partly Cloudy,200,2014-01-27 13:00:00
8:30 PM,80.6,64.4,58,29.89,5.6,SSW,6.9,-,N/A,,Partly Cloudy,210,2014-01-27 13:30:00
9:00 PM,78.8,64.4,61,29.89,5.6,SW,6.9,-,N/A,,Partly Cloudy,220,2014-01-27 14:00:00
9:30 PM,78.8,64.4,61,29.89,5.6,SW,5.8,-,N/A,,Partly Cloudy,220,2014-01-27 14:30:00
10:00 PM,78.8,64.4,61,29.89,5.6,Calm,Calm,-,N/A,,Unknown,0,2014-01-27 15:00:00
10:30 PM,77.0,64.4,65,29.89,5.6,NNW,5.8,-,N/A,,Unknown,340,2014-01-27 15:30:00
11:00 PM,78.8,64.4,61,29.89,5.6,NW,3.5,-,N/A,,Unknown,310,2014-01-27 16:00:00
11:30 PM,78.8,64.4,61,29.89,5.6,West,2.3,-,N/A,,Unknown,270,2014-01-27 16:30:00